TimeMST,TemperatureF,Dew PointF,Humidity,Sea Level PressureIn,VisibilityMPH,Wind Direction,Wind SpeedMPH,Gust SpeedMPH,PrecipitationIn,Events,Conditions,WindDirDegrees,DateUTC
12:53 AM,39.9,35.1,83,30.25,10.0,SSE,5.8,-,N/A,,Clear,150,2013-12-23 07:53:00
1:53 AM,37.9,34.0,86,30.25,10.0,South,3.5,-,N/A,,Clear,190,2013-12-23 08:53:00
2:53 AM,37.0,33.1,86,30.26,10.0,Calm,Calm,-,N/A,,Clear,0,2013-12-23 09:53:00
3:53 AM,37.9,33.1,83,30.27,10.0,SSE,4.6,-,N/A,,Clear,160,2013-12-23 10:53:00
4:53 AM,36.0,32.0,86,30.27,10.0,SSW,3.5,-,N/A,,Clear,210,2013-12-23 11:53:00
5:53 AM,35.1,30.9,85,30.28,10.0,NNE,3.5,-,N/A,,Clear,20,2013-12-23 12:53:00
6:53 AM,34.0,30.0,85,30.30,10.0,Calm,Calm,-,N/A,,Clear,0,2013-12-23 13:53:00
7:53 AM,35.1,30.9,85,30.32,10.0,Calm,Calm,-,N/A,,Clear,0,2013-12-23 14:53:00
8:53 AM,39.9,33.1,77,30.33,10.0,Calm,Calm,-,N/A,,Clear,0,2013-12-23 15:53:00
9:53 AM,54.0,30.9,41,30.32,10.0,SE,11.5,-,N/A,,Clear,130,2013-12-23 16:53:00
10:53 AM,57.0,28.9,34,30.30,10.0,ESE,13.8,-,N/A,,Clear,120,2013-12-23 17:53:00
11:53 AM,61.0,26.1,26,30.28,10.0,ESE,18.4,25.3,N/A,,Clear,120,2013-12-23 18:53:00
12:53 PM,63.0,24.1,23,30.25,10.0,Variable,3.5,19.6,N/A,,Clear,0,2013-12-23 19:53:00
1:53 PM,64.0,23.0,21,30.23,10.0,NE,9.2,-,N/A,,Clear,50,2013-12-23 20:53:00
2:53 PM,64.9,28.0,25,30.23,10.0,North,10.4,-,N/A,,Clear,10,2013-12-23 21:53:00
3:53 PM,63.0,30.9,30,30.22,10.0,North,9.2,-,N/A,,Clear,350,2013-12-23 22:53:00
4:53 PM,62.1,33.1,34,30.23,10.0,NNW,6.9,-,N/A,,Clear,340,2013-12-23 23:53:00
5:53 PM,57.9,35.1,42,30.24,10.0,North,5.8,-,N/A,,Clear,360,2013-12-24 00:53:00
6:53 PM,54.0,35.1,49,30.26,10.0,Calm,Calm,-,N/A,,Clear,0,2013-12-24 01:53:00
7:53 PM,50.0,33.1,52,30.27,10.0,Calm,Calm,-,N/A,,Clear,0,2013-12-24 02:53:00
8:53 PM,50.0,33.1,52,30.26,10.0,SSE,6.9,-,N/A,,Clear,160,2013-12-24 03:53:00
9:53 PM,50.0,27.0,41,30.22,10.0,East,5.8,-,N/A,,Clear,100,2013-12-24 04:53:00
10:53 PM,51.1,25.0,36,30.22,10.0,ESE,10.4,-,N/A,,Clear,120,2013-12-24 05:53:00
11:53 PM,52.0,23.0,32,30.20,10.0,ESE,12.7,20.7,N/A,,Clear,110,2013-12-24 06:53:00